map of COR home
COR - Airport
Location
City:  Córdoba, Córdoba, Argentina
Name:Ingeniero Aeronáutico Ambrosio L.V. Taravella International Airport
ICAO:SACO
IATA:COR

Details
Type:Airport (Aerodrome, Airfield)
Use:Public/Civil, International (customs port of entry)
Latitude:31°19'25"S (-31.323618)
Longitude:64°12'29"W (-64.207952)
Datum:WGS 1984
Elevation:1604 ft (489 m)
Variation:5.70°W (WMM2015 magnetic declination)
-0.18° annual change
Runways:2
Longest:10410 × 148 ft (3173 × 45 m), paved

Time
Time Zone:UTC-3
Local Time:

Weather
METAR:SACO 231700Z 17005KT 5000 -DZ BR BKN012 BKN030 14/11 Q1023 NOSIG
TAF:SACO 231100Z 2312/2412 18005KT 5000 DZ BR OVC010 TX22/2319Z TN14/2410Z
BECMG 2315/2317 05005KT 7000 BKN010 BKN020

Related Locations
Nearby:
Farthest:HFE: 12356 mi / 19885 km
Hefei [Hefei Xinqiao Intl], 34, CN

Find:

   beyond  
but within

Other Information
Maps:
NOTAMs:
Links:
Sources:

  
  • flag of Argentina
  • flag of Córdoba
  

Sectional Chart

Flight Planning
at skyvector.com

Satellite Image

Google Maps Satellite view

 

Copyright © 2004-2018 Karl L. Swartz. All rights reserved.
The Great Circle Mapper name and logo are trademarks of the Great Circle Mapper.
All other trademarks mentioned herein belong to their respective owners.
Please see credits for attibutions and further copyright information.

  Follow gcmap on Facebook Follow gcmap on Twitter Follow gcmap on Google+ GCmap on LinkedIn

hCard Microformat

Geo Microformat